sat.trackr.live / text

‹ back to catalog

STARLINK-5659

NORAD 55351 · 2023-013W

PAYLOAD ACTIVE UNKNOWN

§ Identity

Operator
Country
US
Launch date
2023-01-26
Launch site
AFETR
Launch vehicle
Mass (kg)
RCS (m²)

Purposes: comms

External: N2YO · Heavens-Above · Gunter

§ Orbital elements

Epoch: 2026-05-24T14:08:29.586912Z

Period
94.27 min
Inclination
43.0022°
Eccentricity
0.0001527
Mean motion
15.27577639 rev/d
Perigee alt
482.0 km
Apogee alt
484.1 km
Semi-major
6,861.2 km
B*
2.4375e-5
RAAN
234.5528°
Arg perigee
259.2514°
Mean anomaly
100.8165°
Rev number
18,328

§ Raw data

STARLINK-56591 55351U 23013W   26144.58923133  .00000409  00000+0  24375-4 0  99962 55351  43.0022 234.5528 0001527 259.2514 100.8165 15.27577639183289

JSON: /api/v1/satellites/55351 · /tle

For live sub-satellite position, see the globe view (requires WebGL).

§ Visibility from observer

Set your observer location to see the next 7 days of passes ≥ 10°. The values pass through the URL so the page stays shareable.

No JS? Fill the form by hand. The geolocation button needs JavaScript.